EHI
0 0 0 0 0 0 0 0 0 0 0 1 3 4 5 6 7 7 7 11 17 21 21 17 16 16 15 12 11 10 8 6 5 4 3 3 3 2 1 0 0 0 0 0
0 0 0 0 0 0 0 0 0 0 1 3 5 4 4 5 6 7 7 11 16 20 20 19 19 20 19 15 11 10 8 7 6 4 3 3 3 3 1 0 0 0 0 0
0 0 0 0 0 0 0 0 0 1 1 3 5 4 2 3 4 5 8 12 15 18 21 22 23 24 21 17 13 11 9 8 6 5 4 4 4 3 2 1 1 1 0 0
0 0 0 0 0 0 0 0 0 0 0 1 2 2 1 1 1 4 10 14 16 19 22 24 25 24 22 19 17 14 11 10 9 8 7 6 5 4 3 2 2 2 1 1
0 0 0 0 0 0 0 0 0 0 0 0 1 1 1 1 1 4 9 14 17 22 24 24 23 23 24 24 22 19 16 14 13 11 10 9 7 5 4 4 4 3 3 2
1 1 1 0 0 0 0 0 0 0 0 0 0 0 1 1 2 4 7 12 16 22 24 22 21 22 25 27 26 23 20 18 16 14 13 12 11 8 7 7 6 4 3 3
0 1 1 0 0 0 0 0 0 0 0 0 0 0 0 1 2 5 8 11 15 19 21 20 20 22 26 28 26 23 21 19 17 15 15 15 13 11 11 10 8 5 3 3
0 0 0 0 0 0 0 0 0 0 0 1 1 0 0 0 2 7 11 11 12 14 15 17 20 23 26 27 24 22 20 18 16 15 15 15 13 11 11 11 9 7 5 4
0 0 0 0 0 1 0 0 0 0 0 1 1 0 0 0 3 9 12 10 9 11 12 15 19 23 25 26 23 21 20 17 15 15 14 12 10 9 9 9 8 8 6 5
0 0 0 0 0 0 0 0 0 0 0 1 1 0 0 1 4 9 10 8 9 11 13 16 20 23 24 23 21 19 17 15 13 12 11 9 8 7 7 6 6 6 6 6
0 0 0 0 0 0 0 0 0 0 0 0 0 0 1 2 4 7 8 9 13 16 18 21 24 25 24 22 19 16 14 13 11 10 9 8 7 7 6 5 4 5 6 6
0 0 0 0 0 0 0 0 0 0 0 0 0 1 2 4 5 7 9 13 17 21 23 27 30 30 27 24 20 17 14 11 10 8 8 9 9 8 7 5 4 5 5 4
0 0 0 0 0 0 0 0 0 0 0 0 0 1 3 6 7 9 13 16 19 23 28 31 33 34 32 28 24 20 15 10 8 8 8 9 9 8 7 6 5 5 3 1
0 0 0 0 0 0 0 0 0 0 0 0 0 1 4 7 8 12 17 19 20 26 29 30 31 33 32 30 25 21 16 11 9 9 9 9 8 7 6 5 5 4 3 2
0 0 0 0 0 0 0 0 0 1 1 1 1 1 3 7 10 14 20 22 23 27 29 28 28 29 29 26 23 20 18 14 12 12 12 9 7 7 7 5 4 3 4 3
0 0 0 0 0 0 0 0 0 1 2 2 2 2 5 10 14 17 20 22 22 24 26 26 26 28 26 22 18 18 18 17 15 15 13 11 9 8 8 6 4 4 4 4
0 0 0 0 0 0 0 0 0 1 2 3 2 3 8 15 18 18 18 18 18 20 22 23 24 25 23 19 15 15 16 17 18 18 16 14 12 11 9 7 5 6 6 5
0 0 0 0 0 0 0 1 1 1 2 2 3 6 13 19 21 17 14 13 14 16 19 20 20 20 19 16 13 13 14 15 17 18 17 16 14 13 10 7 7 7 7 7
0 0 0 0 0 0 0 1 2 3 2 3 5 10 15 20 21 15 11 11 13 15 17 16 16 17 15 15 15 15 14 14 14 16 16 15 13 11 9 7 7 8 8 8
0 0 0 0 0 0 0 1 2 2 2 4 7 10 13 16 15 11 9 11 13 16 16 15 16 16 15 15 17 16 14 13 13 15 15 13 11 9 8 7 6 8 9 9
0 0 0 0 0 0 0 1 1 2 2 3 6 8 8 7 7 8 9 11 15 18 19 18 18 17 16 16 17 17 15 14 14 14 13 12 10 9 8 6 7 8 9 9
0 0 0 0 0 0 1 2 2 2 2 3 5 6 5 4 6 9 11 12 16 19 21 21 19 17 16 16 17 17 16 14 11 11 11 9 9 8 7 6 7 8 8 7
0 0 0 0 0 0 1 2 2 3 3 3 4 4 5 7 9 10 11 13 16 19 20 19 18 16 14 14 15 15 13 10 7 6 6 6 6 7 7 7 7 7 6 5
0 0 0 0 0 1 1 1 1 2 3 3 4 4 5 8 11 11 11 12 14 16 17 17 16 15 13 12 11 10 8 6 4 3 4 4 4 4 5 6 6 6 6 4
0 0 0 0 0 1 1 1 1 2 2 3 4 5 6 10 14 14 12 11 12 12 13 13 13 13 12 11 9 7 6 4 3 3 3 3 3 3 4 3 4 4 4 3
0 0 0 0 0 0 1 1 1 2 2 2 5 6 6 10 15 16 12 11 11 10 10 11 11 12 12 10 8 6 5 4 3 3 3 3 3 3 3 2 1 2 2 2
Wind_Speed
2 2 3 7 6 7 5 3 3 5 2 3 4 4 4 5 6 7 6 7 8 8 7 6 7 7 7 6 5 4 4 3 3 3 2 2 2 2 2 2 2 3 3 3
3 4 9 6 5 4 3 2 3 4 1 2 3 2 3 5 7 8 8 8 8 7 6 6 6 7 6 6 5 5 4 4 3 3 2 2 2 1 1 1 2 2 3 2
6 9 6 4 4 3 3 4 4 3 2 4 4 2 2 3 3 5 7 8 9 11 11 9 7 7 7 6 6 6 4 4 3 4 3 3 2 2 2 2 1 2 2 2
6 7 5 4 5 3 4 5 4 3 3 1 2 1 5 4 3 4 5 6 8 9 10 9 8 7 7 7 6 6 5 4 3 4 4 5 3 2 1 1 1 1 2 2
6 5 4 6 7 5 5 4 2 2 2 1 1 2 6 2 4 5 6 7 7 9 10 11 10 8 7 6 6 5 5 4 3 4 5 4 3 2 1 1 2 1 1 1
8 6 6 7 5 4 2 3 4 5 5 2 3 3 6 5 7 6 7 8 8 9 9 9 8 7 6 6 5 5 5 3 3 4 4 5 4 3 2 2 1 1 1 1
7 7 6 4 1 2 3 6 4 5 4 3 3 2 8 6 6 7 9 8 8 9 9 9 9 8 7 7 6 6 6 4 3 4 4 4 4 4 3 3 2 1 1 1
2 7 6 3 5 5 3 8 7 4 3 3 2 3 6 3 2 5 7 7 8 8 8 9 9 9 8 8 6 6 5 4 4 4 3 3 3 2 2 2 2 2 1 1
5 7 6 5 4 7 3 3 8 7 2 0 2 3 5 2 1 3 6 7 9 9 9 9 8 8 8 8 7 6 6 4 4 3 3 3 2 2 2 2 2 1 1 1
7 4 7 5 2 1 6 6 5 5 3 1 2 3 5 5 6 5 6 7 8 8 9 8 8 8 7 8 7 6 5 4 3 3 3 3 2 2 2 2 2 1 1 1
5 4 6 3 1 4 0 2 5 4 5 6 3 6 8 11 9 8 8 8 8 9 9 8 8 7 7 6 6 6 5 4 3 4 3 3 2 2 2 2 1 1 1 2
3 5 2 6 5 3 4 4 6 4 4 4 5 7 4 8 7 9 9 8 7 8 9 9 8 8 7 7 6 6 5 5 4 4 4 3 3 3 2 1 1 1 1 1
3 6 2 8 8 5 2 1 3 5 4 3 4 6 1 3 3 6 9 9 8 8 8 8 8 7 8 7 6 6 6 5 5 4 4 3 2 2 2 1 1 1 1 1
6 5 6 7 7 3 2 2 1 4 3 3 5 5 2 3 5 6 8 9 8 8 9 8 7 6 6 6 6 6 6 5 5 5 4 3 2 2 2 1 1 1 1 1
6 3 2 4 3 1 0 1 1 2 5 6 6 7 7 8 8 9 9 9 10 9 9 9 8 6 6 6 5 6 5 5 5 5 4 3 3 2 2 1 1 1 1 0
4 3 1 3 3 2 1 2 1 1 1 2 3 2 3 4 5 7 8 10 9 9 9 9 8 7 7 6 6 5 5 5 5 5 4 3 3 2 2 2 1 1 0 0
2 4 3 2 4 4 3 2 2 1 2 3 4 4 4 5 6 7 8 8 8 8 8 8 8 7 7 6 7 6 5 4 5 4 4 3 3 3 2 2 2 1 1 0
4 4 3 1 2 3 8 3 2 3 2 2 3 4 6 7 5 4 5 6 7 7 7 7 7 6 6 5 5 5 5 5 4 4 3 3 3 3 2 2 2 2 1 1
5 6 4 3 2 4 6 3 1 3 2 2 5 6 5 7 7 4 2 4 5 6 6 6 6 6 6 6 6 5 4 4 4 3 3 3 4 3 3 3 3 2 1 1
4 5 5 3 3 5 5 5 3 6 2 2 5 6 5 5 4 2 1 4 5 4 4 5 5 5 5 5 5 6 4 4 4 4 3 3 3 3 3 3 3 1 1 1
3 3 3 3 3 5 5 5 4 3 5 2 3 4 3 3 5 4 3 4 5 5 5 5 6 5 4 5 6 5 4 3 3 3 2 2 2 2 3 2 1 1 1 0
2 1 2 3 2 5 5 4 2 4 2 2 3 3 4 4 5 5 5 5 5 5 5 5 5 4 3 4 5 5 3 2 2 2 2 1 1 1 1 1 1 1 1 0
1 4 4 5 5 4 2 1 2 4 5 3 2 2 6 6 5 5 4 4 4 4 4 4 5 5 3 3 4 4 2 2 2 2 2 1 1 1 1 2 2 1 1 1
3 2 2 2 1 2 3 4 4 5 4 3 4 4 5 5 5 5 5 4 4 4 5 5 6 5 3 2 3 2 2 3 3 2 2 1 1 1 0 1 1 2 2 2
3 2 2 1 1 3 4 4 4 5 6 6 6 5 5 6 5 5 5 4 4 4 4 4 5 4 3 2 3 2 2 3 3 1 1 1 1 1 0 1 1 1 3 3
2 2 3 4 4 2 2 1 3 5 4 4 5 4 4 4 5 5 5 4 4 4 3 4 4 4 3 2 2 1 1 2 3 1 1 1 1 1 1 0 2 3 1 1
Wind_Direction
292 73 251 243 222 206 211 223 253 269 227 115 149 165 181 174 160 165 165 166 166 164 161 151 144 138 131 125 119 115 108 103 101 98 99 93 75 58 53 60 68 73 78 86
359 263 241 239 255 247 205 194 255 280 222 118 129 154 187 191 183 181 178 174 167 161 154 157 151 147 145 143 139 135 132 127 122 125 129 128 124 104 98 60 58 74 84 92
218 249 251 247 260 263 244 199 216 230 31 67 90 5 230 226 205 186 178 172 170 168 168 168 162 158 150 152 156 150 151 141 134 127 110 96 73 54 46 42 39 38 72 83
246 252 256 251 253 216 253 236 202 182 112 254 129 220 265 220 215 190 182 175 176 169 166 166 163 162 162 166 161 153 151 142 139 133 125 124 121 127 160 154 84 52 53 69
251 251 249 247 241 212 227 231 193 161 116 65 17 127 275 222 198 205 192 180 175 170 166 167 166 169 166 161 155 148 142 137 136 133 138 132 126 138 128 93 80 54 34 48
252 252 220 225 242 212 200 45 28 51 68 18 255 159 262 233 203 189 181 177 175 168 161 159 157 152 150 149 144 142 135 135 138 138 137 138 140 140 124 111 99 60 19 24
298 286 257 227 255 311 88 82 34 2 16 261 252 185 245 236 198 176 174 174 170 163 159 156 153 151 153 151 150 145 140 139 140 132 138 146 150 150 150 155 153 141 70 22
254 288 261 221 193 197 192 136 151 195 221 267 312 232 261 245 186 162 157 159 157 158 161 161 162 160 157 153 150 151 151 152 153 144 144 135 134 141 146 156 159 159 168 186
196 254 273 249 216 161 167 176 168 144 147 105 287 300 321 28 65 140 145 148 158 164 161 160 161 158 157 157 161 162 159 155 158 155 145 134 133 133 134 129 135 143 154 132
173 246 281 279 15 354 161 159 97 109 146 209 267 233 220 212 202 183 163 154 157 165 160 161 160 162 163 164 162 156 154 155 157 150 152 143 134 123 116 108 110 117 110 100
159 178 297 346 193 222 157 106 113 125 155 157 210 253 215 196 191 179 176 164 161 166 162 154 154 160 154 147 148 148 149 141 140 143 133 117 112 105 91 94 115 119 97 99
171 134 254 270 261 188 152 169 142 148 231 176 174 257 234 181 181 168 159 152 154 154 152 148 150 153 149 147 150 149 148 144 142 136 130 129 129 118 106 103 129 127 119 109
121 105 50 339 343 7 55 174 160 142 128 155 168 256 287 141 145 154 152 150 150 142 137 142 147 149 153 155 157 155 154 152 147 140 133 127 128 129 133 138 134 119 113 97
106 110 154 194 226 249 303 302 109 119 147 202 212 216 237 172 159 153 150 152 147 141 142 146 150 152 152 152 155 155 155 155 150 144 140 140 148 152 156 155 137 125 125 118
92 115 198 225 232 142 296 271 248 207 196 187 213 192 206 198 175 163 151 146 145 152 152 156 156 154 149 150 155 154 155 158 156 150 151 163 163 155 150 142 139 127 143 155
71 116 61 332 327 18 356 333 283 278 225 170 141 216 216 156 139 141 145 145 157 162 160 156 152 151 155 157 157 156 158 162 155 157 170 174 164 163 168 168 154 135 106 7
64 101 83 288 313 18 317 237 209 265 311 157 168 206 153 120 141 155 154 153 159 159 155 157 160 164 164 162 159 164 166 157 155 163 170 173 171 172 181 178 152 161 185 169
141 113 128 160 29 232 244 253 167 119 39 74 122 135 139 137 143 133 133 147 154 152 153 158 159 159 159 156 155 154 150 150 155 160 170 178 174 177 180 177 191 205 199 196
152 140 129 129 185 269 296 331 26 128 18 16 111 112 110 106 81 53 64 129 148 151 158 162 163 159 156 156 152 138 142 148 154 170 185 192 184 184 188 198 212 214 196 214
62 104 121 138 168 226 259 299 318 92 28 336 111 122 135 106 104 225 168 111 114 121 133 142 139 131 140 151 145 138 146 154 174 190 194 195 188 191 197 202 204 200 189 218
10 36 117 159 204 248 271 304 28 111 227 264 133 141 137 139 175 180 140 116 115 123 130 131 128 130 145 150 141 141 146 175 194 182 171 173 179 191 192 198 194 180 191 229
171 156 187 153 182 252 301 17 109 199 196 110 107 122 114 115 122 124 125 124 124 125 123 124 123 120 115 125 130 133 155 180 146 132 128 141 160 177 151 156 183 189 179 180
160 188 189 181 204 250 309 124 167 137 110 96 96 117 119 115 119 118 119 123 125 132 122 112 114 107 93 102 125 137 163 132 108 106 114 99 86 103 138 159 183 186 180 201
316 7 84 64 322 319 24 51 76 100 107 104 100 106 113 120 128 122 124 120 111 108 113 114 111 108 105 95 102 125 139 126 115 126 136 135 125 118 49 175 188 196 203 208
275 355 45 37 304 10 22 42 70 75 74 73 69 78 99 118 123 124 121 121 121 115 110 117 122 124 123 107 93 95 121 122 116 123 140 138 144 161 182 273 248 216 217 207
236 174 167 219 220 181 241 331 67 92 95 95 87 63 63 111 130 124 123 129 127 126 121 119 122 124 122 110 98 80 90 116 125 134 179 184 180 184 174 146 352 356 327 301